Probability
1 1 0 0 0 0 0 0 0 0 0 0 0 0 0 1 2 2 2 1 3 4 3 1 1 2 2 2 1 0 0 0 0 0 0 0 0 0 0 0 0 0 0
1 0 0 0 0 0 0 0 0 0 0 0 0 0 0 0 1 1 1 1 3 4 4 3 1 1 1 1 0 0 0 0 0 0 0 0 0 0 0 0 0 0 0
0 0 0 0 0 0 0 0 0 0 0 0 0 0 0 0 0 0 0 1 2 3 4 4 3 2 0 0 0 0 0 1 1 0 0 0 0 0 0 0 0 0 0
0 0 0 0 0 0 0 0 0 0 0 0 0 0 0 0 0 0 0 0 1 2 3 3 4 3 1 0 0 0 0 1 1 1 1 1 0 0 0 0 0 0 0
0 0 0 0 0 0 0 0 0 0 0 0 0 0 0 0 0 0 0 0 0 1 2 2 3 3 1 0 0 0 1 2 2 2 2 1 1 0 0 0 0 0 0
0 0 0 0 0 0 0 0 0 0 0 0 0 0 0 0 0 0 0 0 0 0 1 2 4 4 2 0 0 1 2 3 3 3 2 2 2 2 1 0 0 0 0
0 0 0 0 0 0 0 0 0 0 0 0 0 0 0 0 0 0 0 0 0 0 1 3 5 6 5 2 1 2 4 5 6 5 3 3 5 3 2 1 0 0 0
0 0 0 0 0 0 0 0 0 0 0 0 0 0 0 0 0 0 0 0 0 0 1 3 4 6 5 4 3 3 6 7 9 10 7 6 6 5 4 4 3 1 0
0 0 0 0 0 0 0 0 0 0 0 0 0 0 0 0 0 0 0 0 0 0 1 1 2 2 3 4 3 4 5 7 10 12 12 11 8 6 6 7 7 4 2
0 0 0 0 0 0 0 0 0 0 0 0 0 0 0 0 0 0 0 0 0 0 0 0 1 1 1 1 2 2 3 3 7 10 13 14 9 5 6 7 9 8 6
0 0 0 0 0 0 0 0 0 0 0 0 0 0 0 0 0 0 0 0 0 0 0 0 0 1 0 0 0 1 1 1 2 5 8 10 8 5 5 8 9 10 10
0 0 0 0 0 0 0 0 0 0 0 0 0 0 0 0 0 0 0 0 0 0 0 0 0 0 0 0 0 0 1 0 1 2 3 4 4 5 7 10 11 12 13
0 0 0 0 0 0 0 0 0 0 0 0 0 0 0 0 0 0 0 0 0 0 0 0 0 0 0 0 0 0 0 0 0 1 1 1 1 3 5 9 12 13 13
0 0 0 0 0 0 0 0 0 0 0 0 0 0 0 0 0 0 0 0 0 0 0 0 0 0 0 0 0 0 0 0 0 0 0 0 0 1 2 3 6 9 9
0 0 0 0 0 0 0 0 0 0 0 0 0 0 0 0 0 0 0 0 0 0 0 0 0 0 0 0 0 0 0 0 0 0 0 0 0 0 0 0 1 2 2
0 0 0 0 0 0 0 0 0 0 0 0 0 0 0 0 0 0 0 0 0 0 0 0 0 0 0 0 0 0 0 0 0 0 0 0 0 0 0 0 0 0 0
0 0 0 0 0 0 0 0 0 0 0 0 0 0 0 0 0 0 0 0 0 0 0 0 0 0 0 0 0 0 0 0 0 0 0 0 0 0 0 0 0 0 0
0 0 0 0 0 0 0 0 0 0 0 0 0 0 0 0 0 0 0 0 0 0 0 0 0 0 0 0 0 0 0 0 0 0 0 0 0 0 0 0 0 0 0
0 0 0 0 0 0 0 0 0 0 0 0 0 0 0 0 0 0 0 0 0 0 0 0 0 0 0 0 0 0 0 0 0 0 0 0 0 0 0 0 0 0 0
0 0 0 0 0 0 0 0 0 0 0 0 0 0 0 0 0 0 0 0 0 0 0 0 0 0 0 0 0 0 0 0 0 0 0 0 0 0 0 0 0 0 0
0 0 0 0 0 0 0 0 0 0 0 0 0 0 0 0 0 0 0 0 0 0 0 0 0 0 0 0 0 0 0 0 0 0 0 0 0 0 0 0 0 0 0
0 0 0 0 0 0 0 0 0 0 0 0 0 0 0 0 0 0 0 0 0 0 0 0 0 0 0 0 0 0 0 0 0 0 0 0 0 0 0 0 0 0 0
0 0 0 0 0 0 0 0 0 0 0 0 0 0 0 0 0 0 0 0 0 0 0 0 0 0 0 0 0 0 0 0 0 0 0 0 0 0 0 0 0 0 0
0 0 0 0 0 0 0 0 0 0 0 0 0 0 0 0 0 0 0 0 0 0 0 0 0 0 0 0 0 0 0 0 0 0 0 0 0 0 0 0 0 0 0
0 0 0 0 0 0 0 0 0 0 0 0 0 0 0 0 0 0 0 0 0 0 0 0 0 0 0 0 0 0 0 0 0 0 0 0 0 0 0 0 0 0 0
0 0 0 0 0 0 0 0 0 0 0 0 0 0 0 0 0 0 0 0 0 0 0 0 0 0 0 0 0 0 0 0 0 0 0 0 0 0 0 0 0 0 0
Wind_Speed
1 1 1 1 1 1 1 1 0 1 1 1 1 1 2 2 2 2 2 6 6 8 10 11 12 12 13 13 13 13 14 14 13 12 11 11 11 12 11 11 10 10 9
2 2 1 1 1 1 1 1 1 0 0 1 1 1 2 2 3 3 3 4 7 8 9 10 11 12 13 14 14 14 14 14 13 13 13 12 12 12 12 11 11 10 9
3 2 2 1 1 1 2 2 2 1 1 1 2 2 2 2 3 3 3 3 3 6 8 9 10 11 13 13 14 15 15 14 14 14 14 13 12 12 12 11 11 11 10
4 3 2 1 1 2 2 2 2 2 2 2 2 2 2 2 3 3 2 3 3 3 5 9 10 10 12 14 15 15 15 15 15 15 15 15 14 13 13 12 12 11 11
4 3 2 2 2 3 2 2 2 1 1 2 2 1 2 2 2 2 2 2 3 3 3 5 9 10 13 14 14 15 15 16 15 16 17 17 16 15 14 14 13 13 12
3 3 3 3 3 3 2 2 2 2 1 2 2 2 2 2 2 2 2 2 2 2 3 3 4 5 9 11 12 13 14 16 16 17 17 18 18 17 16 15 15 14 14
3 3 3 3 2 3 2 2 2 3 3 2 2 3 3 3 2 2 2 2 3 3 2 2 2 3 3 8 10 11 13 14 15 17 17 17 18 18 18 17 16 16 15
3 3 3 2 2 2 3 2 2 2 2 3 1 2 3 4 3 3 3 3 4 3 4 3 2 2 3 3 5 9 11 13 15 15 16 17 17 17 18 19 18 18 17
2 3 4 3 2 2 2 2 2 2 1 2 2 2 2 1 3 3 3 3 4 3 4 4 3 3 3 3 4 6 9 10 13 15 15 16 17 18 18 19 20 19 19
2 3 3 3 3 2 2 1 2 2 2 1 1 1 1 1 0 3 3 3 4 4 5 4 4 4 3 2 3 5 8 8 9 12 14 15 16 17 18 20 21 21 21
1 2 3 3 3 2 2 2 2 2 1 1 1 0 1 1 1 1 3 4 4 3 3 4 3 3 4 3 3 4 6 6 7 8 10 11 13 15 17 19 21 22 22
0 1 3 3 3 2 2 2 2 2 2 1 1 1 1 1 1 1 2 3 3 3 3 3 2 3 3 3 4 7 6 5 5 5 6 8 10 12 15 17 19 21 22
1 2 2 2 2 2 2 2 2 2 2 2 2 2 2 2 2 2 2 2 3 3 3 2 2 2 3 3 4 7 6 5 4 5 5 6 7 9 11 12 15 17 19
3 2 3 3 2 2 2 2 2 2 2 2 3 2 2 2 2 3 2 2 2 2 2 3 2 2 3 3 4 6 5 6 6 5 6 6 6 8 9 10 11 12 14
2 3 3 3 3 3 2 2 2 2 2 2 3 3 2 2 2 3 3 3 2 3 3 3 2 3 3 4 5 4 5 6 7 6 6 7 7 7 8 8 9 10 11
3 3 3 3 3 3 3 3 2 2 3 3 2 3 3 2 2 3 3 3 4 4 4 3 3 4 5 6 6 5 6 8 8 8 8 8 8 8 8 9 10 10 11
4 4 4 4 4 4 3 3 3 3 4 4 3 4 5 4 3 3 3 3 4 4 6 5 3 3 4 6 6 5 5 5 5 8 9 9 9 10 10 10 10 11 11
5 5 4 4 4 4 4 4 4 4 4 5 5 4 5 3 4 3 3 4 4 5 5 7 4 3 5 5 6 6 5 5 5 7 9 10 10 10 10 10 10 11 11
5 5 5 5 5 5 5 5 5 5 5 6 5 5 6 5 5 4 5 5 4 5 5 5 5 3 4 4 4 5 5 4 5 6 8 8 9 10 10 10 10 11 11
6 6 6 6 6 5 5 5 5 5 5 6 6 6 6 6 7 6 5 6 5 5 5 5 6 5 5 4 4 4 5 3 4 5 6 6 7 9 9 10 10 11 11
7 6 6 6 6 5 6 6 6 6 6 6 6 7 7 9 10 8 6 6 6 5 5 5 6 5 5 4 4 3 5 5 5 4 4 4 4 4 5 7 10 11 11
6 6 6 7 7 6 8 10 8 7 7 7 8 7 7 9 11 11 12 11 10 8 8 6 6 7 8 7 5 5 4 4 5 2 3 4 3 5 6 6 8 11 12
7 7 7 7 8 9 11 12 12 8 8 8 9 8 7 7 9 8 9 11 11 12 13 10 10 10 9 7 6 6 6 6 7 4 3 6 5 6 6 7 11 12 12
6 7 7 8 8 10 12 13 12 9 9 10 10 10 10 10 9 8 8 8 9 9 10 9 10 10 10 8 8 7 7 7 7 6 5 6 6 6 7 6 10 13 13
6 7 6 8 9 10 12 13 12 7 8 11 10 10 11 11 13 12 9 10 10 10 10 12 13 12 13 12 9 6 6 6 7 6 5 5 6 6 6 7 8 11 13
7 7 7 8 9 10 12 13 12 6 8 9 9 9 13 14 14 12 10 9 11 11 8 7 8 9 10 10 11 10 9 8 7 6 6 6 5 4 5 4 4 4 6
Wind_Direction
126 104 76 51 34 41 71 78 33 355 8 333 306 275 269 260 251 249 256 258 246 228 221 215 209 206 204 200 199 200 199 196 191 187 187 186 184 183 183 183 178 174 173
125 115 93 76 64 59 80 97 93 57 354 334 309 294 269 264 256 257 259 269 266 250 232 222 219 217 215 210 208 207 207 204 197 193 193 192 190 189 190 190 186 183 182
123 111 99 83 59 55 78 80 59 49 24 353 317 306 288 276 270 262 261 261 266 263 250 238 233 229 226 221 217 215 212 209 203 198 197 196 194 194 194 193 191 189 187
123 112 102 78 61 65 67 74 55 44 19 358 327 313 308 294 286 275 263 257 255 260 257 250 246 241 237 233 229 224 219 215 210 204 202 200 199 199 198 197 195 193 191
127 119 109 90 84 75 64 73 64 59 22 347 313 303 320 310 303 300 294 279 261 253 251 257 255 252 247 242 237 232 226 218 215 212 209 206 205 203 202 201 199 197 195
125 114 100 89 86 82 67 64 69 51 33 338 327 338 339 339 339 345 332 325 306 280 259 256 258 263 260 254 246 239 233 223 217 217 216 213 211 206 204 204 203 201 200
132 117 107 97 91 90 83 77 84 57 27 359 14 352 346 359 10 21 6 9 2 340 324 285 263 254 263 259 251 245 240 234 224 221 221 218 216 211 206 206 206 205 204
152 140 131 125 114 102 85 68 79 79 28 22 55 49 1 352 353 7 5 22 15 6 360 342 307 283 270 263 257 253 246 241 233 228 226 225 221 217 211 209 208 207 207
170 150 147 138 131 125 122 106 97 106 79 20 36 107 104 306 315 330 354 9 5 10 2 348 348 329 302 274 268 263 259 249 239 235 233 230 224 218 215 214 213 210 209
164 161 152 147 143 138 136 135 119 117 123 67 15 31 105 165 217 323 325 344 353 5 358 352 348 346 339 310 281 273 273 264 253 244 240 235 230 222 218 217 217 215 213
146 159 156 154 152 151 151 137 128 131 138 155 160 96 72 59 97 206 303 325 334 330 334 333 335 343 345 339 315 299 287 275 263 256 249 239 233 230 226 223 224 223 220
169 172 164 164 165 168 175 172 163 162 168 167 172 175 168 173 193 197 256 296 308 305 312 313 325 336 339 346 339 337 325 309 286 271 263 253 241 234 232 231 230 230 227
195 202 174 175 180 191 191 178 178 194 190 190 197 205 207 214 197 189 219 267 289 299 309 306 301 314 331 342 338 339 333 324 304 286 275 264 252 243 237 234 234 233 232
198 196 184 188 200 201 195 183 195 215 207 214 223 216 220 227 207 200 203 219 285 296 290 287 300 293 318 322 315 325 318 315 306 291 280 273 264 254 248 241 238 238 237
194 192 192 197 207 206 200 188 210 230 221 230 238 235 235 239 223 221 216 207 223 275 287 277 283 297 307 303 300 304 302 300 298 288 278 270 264 258 251 247 244 241 239
192 186 199 205 212 214 207 199 219 229 229 241 236 241 247 247 240 229 222 219 216 231 262 264 261 280 295 298 298 298 292 295 290 283 274 265 260 257 253 250 248 245 241
195 202 207 211 219 223 217 212 230 231 234 246 245 239 251 249 248 244 230 224 222 217 251 270 259 270 276 283 296 297 289 285 283 280 276 269 261 254 250 250 249 248 246
206 208 208 215 225 227 221 221 238 239 238 249 251 246 254 252 248 246 237 237 234 224 236 267 274 270 263 273 280 289 290 286 281 281 277 272 264 256 250 249 250 248 246
209 209 208 216 225 228 228 230 232 241 242 246 247 245 251 246 254 251 245 246 247 244 231 250 269 266 267 270 279 282 283 283 283 281 278 271 264 259 253 248 247 247 245
207 211 214 219 225 229 233 236 234 241 247 249 247 244 246 242 249 253 253 250 250 252 246 249 262 267 267 269 262 272 283 277 285 289 283 277 269 263 254 250 248 247 245
213 214 217 226 229 230 234 233 234 240 244 252 254 249 248 249 248 245 247 248 246 250 253 253 261 265 267 264 258 255 270 284 281 266 275 272 270 269 263 254 251 248 246
216 214 220 226 232 236 238 236 231 238 242 247 255 258 256 258 260 258 256 252 242 243 248 251 258 259 264 260 258 254 260 273 280 255 256 275 270 273 268 259 252 249 249
213 218 226 228 236 242 245 246 242 236 241 245 248 253 257 254 247 253 260 265 260 250 242 244 253 256 259 253 248 255 249 248 255 261 263 275 266 268 266 262 254 251 250
213 222 230 231 238 248 246 246 247 243 244 246 245 244 248 256 252 244 253 261 263 260 252 246 245 251 252 252 242 250 260 262 260 257 237 262 266 265 268 262 255 250 249
219 223 227 230 237 250 248 246 244 241 246 251 249 244 240 249 251 241 242 255 264 267 259 248 243 249 251 250 241 242 245 248 263 261 220 239 262 268 267 263 256 247 246
225 229 237 236 238 248 250 246 238 235 247 254 254 248 239 239 246 238 234 242 254 262 265 268 260 260 260 259 247 235 238 244 256 263 229 221 248 253 269 253 253 249 247